Hourly Data Report for May 05, 2021

CARIBOU POINT (AUT)
NOVA SCOTIA
Current Station Operator: ECCC - MSC

45°46'00.000" N
62°41'00.000" W
2.40 m
8200774
71415
WBK

Download Data

Hourly Data (May 2021)
Hourly Data Report for May 5, 2021
TIME
LST
Temp Definition
°C
Dew Point Definition
°C
Rel Hum Definition
%
Precip. Amount Definition
mm

Wind Dir Definition
10's deg

Wind Spd Definition
km/h
Visibility Definition
km
Stn Press Definition
kPa
Hmdx Definition


Wind Chill Definition


Weather Definition


00:00 5.5 2.0 78 0.0 6 15   101.21     LegendNANA
01:00 5.1 2.3 82 0.0 7 17   101.13     LegendNANA
02:00 5.1 2.8 85 0.0 9 13   101.20     LegendNANA
03:00 4.6 0.9 77 0.0 16 6   101.24     LegendNANA
04:00 5.0 2.4 84 0.0 7 6   101.27     LegendNANA
05:00 5.0 2.0 81 0.0 10 5   101.30     LegendNANA
06:00 5.2 2.1 81 0.0 8 8   101.33     LegendNANA
07:00 5.5 2.3 80 0.0 10 10   101.39     LegendNANA
08:00 7.4 3.1 74 0.0 7 4   101.40     LegendNANA
09:00 7.1 3.6 78 0.0 4 9   101.38     LegendNANA
10:00 7.2 3.0 75 0.0 5 11   101.39     LegendNANA
11:00 7.1 3.7 79 0.0 3 14   101.39     LegendNANA
12:00 7.0 2.6 73 0.0 5 20   101.27     LegendNANA
13:00 7.7 3.0 72 0.0 4 15   101.26     LegendNANA
14:00 7.8 1.8 66 0.0 5 26   101.17     LegendNANA
15:00 8.4 2.6 67 0.0 14 8   101.17     LegendNANA
16:00 7.6 3.3 74 0.0 6 16   101.19     LegendNANA
17:00 7.0 3.1 76 0.0 8 19   101.16     LegendNANA
18:00 6.8 3.7 81 0.0 9 22   101.14     LegendNANA
19:00 6.6 4.0 84 0.0 8 18   101.12     LegendNANA
20:00 6.5 4.5 87 0.0 10 19   101.10     LegendNANA
21:00 7.8 4.0 77 0.0 14 20   101.05     LegendNANA
22:00 7.2 4.2 81 0.0 13 18   100.97     LegendNANA
23:00 6.9 3.6 79 0.0 11 22   100.83     LegendNANA

Notes on Data Quality.

Legend

  • E = Estimated
  • M = Missing
  • NA = Not Available*
  • [empty] = Indicates an unobserved value
Date modified: